Total_Precipitation_Accumulation
0.64 0.77 0.83 0.78 0.78 0.83 0.89 0.94 0.98 0.94 0.93 0.90 0.80 0.74 0.72 0.70 0.63 0.54 0.42 0.38 0.37 0.35 0.34 0.34 0.36 0.41 0.46 0.50 0.56 0.64 0.71 0.76 0.86 1.00 1.21 1.43 1.56 1.70
0.80 0.89 0.93 0.96 0.94 0.87 0.91 0.96 0.98 1.04 1.00 0.85 0.78 0.79 0.71 0.55 0.52 0.47 0.40 0.42 0.39 0.36 0.33 0.31 0.30 0.35 0.39 0.40 0.37 0.40 0.45 0.49 0.52 0.57 0.66 0.79 0.95 1.13
0.93 1.03 1.08 1.13 1.12 1.01 0.96 0.94 0.94 1.03 0.97 0.83 0.77 0.79 0.68 0.52 0.46 0.43 0.41 0.40 0.36 0.37 0.33 0.29 0.28 0.29 0.32 0.35 0.34 0.33 0.34 0.35 0.39 0.42 0.45 0.50 0.53 0.60
0.96 1.12 1.20 1.18 1.09 1.03 1.02 0.98 0.97 1.05 0.99 0.91 0.89 0.83 0.75 0.65 0.56 0.50 0.43 0.39 0.37 0.39 0.35 0.30 0.28 0.27 0.27 0.27 0.27 0.27 0.28 0.29 0.31 0.32 0.35 0.37 0.38 0.38
0.97 1.02 1.05 1.13 1.11 1.03 0.97 0.94 0.94 1.04 1.03 0.95 1.01 1.00 0.90 0.78 0.65 0.54 0.47 0.44 0.39 0.37 0.38 0.35 0.32 0.27 0.25 0.25 0.25 0.25 0.24 0.23 0.25 0.27 0.29 0.33 0.34 0.33
0.84 0.89 0.92 0.96 1.02 1.08 1.02 0.97 0.98 1.00 1.01 1.00 1.05 1.18 1.08 0.92 0.74 0.61 0.52 0.48 0.44 0.34 0.35 0.38 0.37 0.32 0.28 0.25 0.24 0.23 0.25 0.23 0.22 0.24 0.23 0.25 0.31 0.36
0.56 0.58 0.69 0.85 0.95 1.01 0.96 0.94 0.99 0.99 0.99 1.04 1.07 1.21 1.24 1.06 0.83 0.64 0.55 0.54 0.51 0.45 0.38 0.32 0.30 0.27 0.25 0.26 0.26 0.24 0.22 0.22 0.22 0.20 0.21 0.24 0.28 0.38
0.38 0.37 0.38 0.51 0.69 0.81 0.84 0.84 0.89 0.95 0.99 1.01 1.08 1.16 1.22 1.12 0.94 0.80 0.65 0.55 0.53 0.52 0.52 0.47 0.37 0.31 0.26 0.22 0.24 0.25 0.25 0.23 0.21 0.20 0.19 0.19 0.23 0.33
0.33 0.33 0.26 0.25 0.39 0.54 0.65 0.70 0.72 0.72 0.80 0.95 1.07 1.09 1.19 1.23 1.13 0.95 0.83 0.71 0.57 0.55 0.58 0.59 0.52 0.41 0.32 0.28 0.32 0.27 0.26 0.26 0.26 0.26 0.22 0.18 0.17 0.21
0.32 0.32 0.31 0.31 0.34 0.40 0.52 0.60 0.65 0.62 0.60 0.69 0.86 1.05 1.20 1.34 1.31 1.20 1.10 0.97 0.80 0.70 0.65 0.64 0.60 0.52 0.43 0.35 0.35 0.31 0.28 0.27 0.27 0.32 0.41 0.41 0.29 0.24
0.32 0.33 0.34 0.32 0.30 0.27 0.35 0.42 0.48 0.58 0.57 0.59 0.71 0.93 1.12 1.26 1.41 1.34 1.21 1.02 0.85 0.73 0.65 0.57 0.55 0.56 0.52 0.43 0.37 0.36 0.31 0.29 0.28 0.31 0.45 0.69 0.77 0.59
0.44 0.44 0.35 0.29 0.23 0.19 0.27 0.36 0.39 0.42 0.51 0.57 0.63 0.76 0.93 1.05 1.18 1.18 1.04 0.95 0.80 0.69 0.58 0.50 0.46 0.49 0.55 0.50 0.42 0.36 0.32 0.33 0.34 0.37 0.52 0.84 0.99 0.87
0.49 0.48 0.45 0.30 0.21 0.18 0.19 0.29 0.32 0.39 0.49 0.55 0.65 0.79 0.95 1.07 1.07 1.05 1.00 0.85 0.75 0.59 0.47 0.48 0.46 0.41 0.39 0.41 0.40 0.39 0.35 0.31 0.30 0.34 0.45 0.71 0.96 0.94
0.63 0.60 0.56 0.39 0.26 0.23 0.20 0.20 0.22 0.27 0.43 0.50 0.57 0.69 0.82 0.97 1.06 1.09 1.06 0.92 0.75 0.66 0.57 0.53 0.47 0.43 0.35 0.31 0.34 0.37 0.40 0.39 0.35 0.32 0.33 0.50 0.66 0.91
0.72 0.72 0.61 0.47 0.37 0.30 0.27 0.26 0.24 0.25 0.37 0.47 0.48 0.53 0.60 0.75 1.03 1.23 1.31 1.21 0.97 0.76 0.68 0.59 0.49 0.45 0.42 0.34 0.29 0.30 0.35 0.41 0.40 0.39 0.38 0.40 0.50 0.68
0.72 0.76 0.66 0.61 0.53 0.44 0.40 0.37 0.32 0.30 0.34 0.43 0.48 0.55 0.66 0.79 0.97 1.17 1.33 1.33 1.15 0.86 0.71 0.63 0.54 0.49 0.47 0.42 0.34 0.29 0.26 0.31 0.37 0.39 0.44 0.47 0.56 0.63
0.85 0.96 0.91 0.83 0.77 0.69 0.62 0.57 0.53 0.46 0.41 0.45 0.58 0.65 0.73 0.78 0.87 1.00 1.18 1.25 1.11 0.85 0.68 0.65 0.64 0.59 0.54 0.51 0.43 0.33 0.28 0.25 0.28 0.34 0.39 0.45 0.53 0.57
0.86 1.03 0.99 0.92 0.89 0.87 0.83 0.77 0.71 0.64 0.58 0.57 0.61 0.69 0.73 0.76 0.83 0.92 1.01 1.08 1.04 0.89 0.72 0.60 0.60 0.60 0.56 0.53 0.45 0.34 0.28 0.26 0.26 0.32 0.34 0.35 0.40 0.46
0.74 0.91 0.91 0.90 0.90 0.94 0.92 0.83 0.75 0.74 0.76 0.73 0.69 0.72 0.76 0.77 0.80 0.87 0.91 0.97 1.01 0.98 0.85 0.69 0.58 0.52 0.47 0.41 0.37 0.33 0.28 0.25 0.29 0.32 0.33 0.31 0.31 0.33
0.68 0.79 0.84 0.86 0.89 0.93 0.90 0.88 0.84 0.87 0.88 0.82 0.78 0.76 0.80 0.80 0.77 0.78 0.83 0.85 0.91 0.96 0.95 0.78 0.59 0.47 0.39 0.33 0.31 0.29 0.27 0.27 0.29 0.31 0.33 0.34 0.35 0.38
0.74 0.78 0.82 0.82 0.83 0.89 0.90 0.90 0.90 0.92 0.91 0.89 0.86 0.83 0.84 0.85 0.78 0.74 0.81 0.87 0.85 0.87 0.84 0.74 0.63 0.62 0.58 0.51 0.41 0.35 0.32 0.30 0.32 0.34 0.37 0.40 0.40 0.41
0.79 0.77 0.81 0.82 0.83 0.85 0.88 0.88 0.90 0.94 0.93 0.90 0.91 0.91 0.88 0.86 0.80 0.78 0.78 0.82 0.77 0.73 0.76 0.82 0.89 0.84 0.71 0.56 0.43 0.39 0.39 0.36 0.35 0.40 0.40 0.38 0.35 0.33
0.79 0.78 0.78 0.77 0.77 0.80 0.83 0.83 0.89 0.92 0.89 0.86 0.88 0.91 0.89 0.86 0.81 0.80 0.78 0.78 0.81 0.83 0.88 0.96 1.02 0.93 0.75 0.63 0.50 0.45 0.47 0.45 0.38 0.35 0.33 0.32 0.30 0.27